Regional Weather Roundup
Issued by NWS Sterling, VA

Home | Current Version | Previous Version | Text Only | Print | Product List | Glossary On
Versions: 1 2 3 4 5 6 7 8 9 10 11 12 13 14 15 16 17 18 19 20 21 22 23 24 25 26 27 28 29 30 31 32 33 34 35 36 37 38 39 40 41 42 43 44 45 46 47 48 49 50
000
ASUS41 KLWX 060810
RWRLWX

REGIONAL WEATHER ROUNDUP
NATIONAL WEATHER SERVICE BALTIMORE MD/WASHINGTON DC
400 AM EDT WED MAY 06 2015

Note: "FAIR" indicates few or no clouds below 12,000 feet
with no significant weather and/or obstructions to visibility.
 TC=TEMPERATURE CELSIUS

 * =Non NWS site. Station does not report precipitation (e.g. rain,
    snow, etc.), thunder, or fog.

DCZ001-MDZ009-015-VAZ040>042-051-053>054-060900-
WASHINGTON METRO

CITY           SKY/WX    TMP DP  RH WIND       PRES   REMARKS
WASHINGTON NAT MOCLDY    65  62  90 S3        30.21S
DULLES         CLEAR     62  60  93 CALM      30.20F
ANDREWS AFB    CLEAR     63  62  99 SW2       30.20R
FT BELVOIR     PTCLDY    59  57  94 S3        30.20F FOG
QUANTICO       PTCLDY    63  61  93 CALM      30.21F
COLLEGE PARK*  CLEAR     61  61 100 CALM      30.20S
LEESBURG*      CLEAR     61  61 100 MISG      30.21S
MANASSAS*      CLOUDY    61  59  94 CALM      30.20S
GAITHERSBURG*  CLEAR     61  57  88 CALM      30.24F

$$

MDZ006>007-011-014-060900-
BALTIMORE METRO

CITY           SKY/WX    TMP DP  RH WIND       PRES   REMARKS
BWI AIRPORT    PTCLDY    62  59  90 SE3       30.19S
MD SCIENCE CTR   N/A     68  59  73 MISG      30.20S
MARTIN STATE   CLEAR     61  61 100 CALM      30.21S FOG
ANNAPOLIS      CLEAR     63  60  90 CALM      30.19R
FORT MEADE*    CLEAR     55  54  94 CALM      30.22S

$$

MDZ012-015-019>023-060900-
MARYLAND EASTERN SHORE

CITY           SKY/WX    TMP DP  RH WIND       PRES   REMARKS
OCEAN CITY     PTCLDY    65  55  70 W6        30.22R
SALISBURY      PTCLDY    62  57  83 SW3       30.21S
BAY BRIDGE AP*   N/A    N/A N/A N/A SE5       30.21R
EASTON*        CLEAR     62  62 100 CALM      30.24F

$$

MDZ017>025-060900-
SOUTHERN MARYLAND

CITY           SKY/WX    TMP DP  RH WIND       PRES   REMARKS
PATUXENT RIVER CLEAR     64  59  83 SW7       30.20S
ST INIGOES     CLEAR     66  57  72 SW5       30.21S
LEONARDTOWN*   CLEAR     63  59  88 SW5       30.22S

$$

MDZ003>005-060900-
NORTH CENTRAL MARYLAND

CITY           SKY/WX    TMP DP  RH WIND       PRES   REMARKS
FREDERICK*     PTCLDY    61  55  82 S6        30.23S FOG
HAGERSTOWN APT CLEAR     64  58  80 E5        30.20F
WESTMINSTER*   PTCLDY    63  59  88 CALM      30.21S

$$

MDZ501>502-060900-
WESTERN MARYLAND

CITY           SKY/WX    TMP DP  RH WIND       PRES   REMARKS
OAKLAND*       CLEAR     61  55  82 SW6       30.28F
CUMBERLAND*    CLEAR     59  59 100 CALM      30.25F

$$

VAZ025>031-060900-
SHENANDOAH VALLEY

CITY           SKY/WX    TMP DP  RH WIND       PRES   REMARKS
WINCHESTER*    CLEAR     61  54  77 CALM      30.21S
FRONT ROYAL*   FAIR      59  57  94 CALM      30.20S
LURAY*         FOG       55  55 100 CALM      30.22S VSB 1/4
NEW MARKET*    CLOUDY    55  55 100 CALM      30.22S VSB 1/4
STAUNTON*      CLEAR     56  54  93 CALM      30.25S FOG
WAYNESBORO*    FAIR      59  57  94 CALM      30.24S

$$

WVZ021-048>050-054>055-060900-
EASTERN WEST VIRGINIA PANHANDLE

CITY           SKY/WX    TMP DP  RH WIND       PRES   REMARKS
MARTINSBURG    CLEAR     58  56  93 CALM      30.21S FOG
PETERSBURG*    FOG       56  53  90 CALM      30.25R VSB<1/4

$$

VAZ036>039-050-060900-
CENTRAL FOOTHILLS

CITY           SKY/WX    TMP DP  RH WIND       PRES   REMARKS
CHARLOTTESVILL CLEAR     61  60  97 W3        30.21F FOG
CULPEPER*      FOG       57  57 100 CALM      30.21F VSB 1/2
ORANGE*        CLEAR     59  57  94 CALM      30.22F FOG
GORDONSVILLE*  FAIR      57  57  99 CALM      30.21S FOG
WARRENTON*     FAIR      60  60 100 CALM      30.20S FOG

$$

VAZ055>057-060900-
NORTH AND CENTRAL PIEDMONT

CITY           SKY/WX    TMP DP  RH WIND       PRES   REMARKS
FREDERICKSBRG* FOG       63  63 100 CALM      30.20S VSB 3/4
STAFFORD*      FOG       58  32  37 CALM      30.24F VSB 1/4

$$

NCZ024-NYZ072-PAZ021-071-VAZ022-071-060900-
OTHER REGIONAL OBSERVATIONS

CITY           SKY/WX    TMP DP  RH WIND       PRES   REMARKS
NEW YORK CITY  CLOUDY    70  36  28 VRB7      30.22S
PHILADELPHIA   PTCLDY    67  62  84 SW5       30.20R
PITTSBURGH     MOCLDY    59  58  96 CALM      30.21F FOG
ROANOKE        CLEAR     61  56  83 CALM      30.25F
RICHMOND       PTCLDY    62  53  72 S5        30.22F
RALEIGH        PTCLDY    59  53  80 CALM      30.26S

$$

ANZ530>537-060900-
MARINE OBSERVATIONS

STATION/POSITION TIME  TEMP    WIND        PRES
                       AIR SEA DIR/SP/G
                 (UTC) (F)     (DEG/KT/KT) (MB)
THOMAS PT LIGHT  0800   64 59  140/  7/  8 1023.4R
BALT KEY BRIDGE  0700   66      30/  2/  2 1022.4F
COVE POINT       0700   65      50/  1/  2 1023.4F
LEWISETTA        0700   68 68              1022.6F
SOLOMONS ISLAND  0700      62                N/A
PINEY POINT      0700          250/  3/  6   N/A

$$



USA.gov is the U.S. government's official web portal to all federal, state and local government web resources and services.